COSMOS 2251 DEB, 34433

Orbit data source: Space-Track

COSMOS 2251 DEB, 34433 is space debris in LEO originally from a launch on Wed, 16 Jun 1993 UTC launched from the Plesetsk Missile And Space Complex (PKMTR). The debris from Iridium 33, an American commercial communications satellite, has been tracked extensively since its accidental collision with the defunct Russian satellite Cosmos 2251 in 2009. This event, occurring at high speed in low Earth orbit (LEO), generated thousands of pieces of space debris, significantly increasing the risk of further collisions. The Iridium 33 debris cloud has impacted space traffic management and orbital debris mitigation strategies, making it a subject of ongoing study in space situational awareness.

Loading next visibility...
Identifier
34433, 1993-036SA
Orbit
LEO
Country
Flag of CISCIS
Related business
Manufacturer
Unknown
Mission
Spacecraft
Bus & Motor
Unknown
Mass
Unknown
Launch date (UTC)
1993-06-16 (33 years ago)
Launch vehicle
Unknown
Launch site
Plesetsk Missile And Space Complex (PKMTR)
Object type
Payload
Rocket body
Debris
Shape & HBR
Unknown shape, 0.1 m
Radar Cross Section
Small (<0.1 m²)

Expand to show TLE details & history
Last TLE update: 13 hours ago

TLE from 13 hours ago
0 COSMOS 2251 DEB
1 34433U 93036SA  26062.26159615  .00002652  00000-0  12781-2 0  9995
2 34433  74.0110  12.2406 0150198 132.6451 228.7466 14.13434269870875
Epoch: 2026-03-03T06:16Z
TLE epoch observation values (Epoch: 2026-03-03T06:16:41.907Z)
Latitude
0.00003°
Longitude
117.0228°
Altitude
922.711 km
Speed
7.354 km/s
True Right ascension
00h 48m 57s
True Declination
0° 00' 00"
Sunlit
Object was in daylight at epoch
Visualization orbit readout
Latitude
Unknown
Longitude
Unknown
Altitude
Unknown
Speed
Unknown
Apparent Right ascension
Unknown
Apparent Declination
Unknown
Sunlit
N/A
Visualization observer readout
Local Sidereal Time
23:01:05
Azimuth
Unknown
Elevation
Unknown
Doppler factor
Unknown
Orbital elements
Apogee altitude
953.788 km
Perigee altitude
736.799 km
Semi-major axis
7,223.431 km
Eccentricity
0.01502
Inclination
74.011°
RAAN
12.2406°
Arg. of periapsis
132.6451°
True anomaly
227.46858°
Mean anomaly
228.7466°
Eccentric anomaly
228.10601°
Mean motion
3.53531 °/min
Orbital period
101.83 mins
BSTAR
0.0012781
Loading maneuver chart data...
Computing Atmospheric mass density...

Documentation

Showing up to 5 results
|